Tracking 25710 objects as of 6-Jul-2022
HD Live streaming from Space Station
objects crossing your sky now

FENGYUN 1C DEB

Track FENGYUN 1C DEB now!
10-day predictions


NORAD ID: 30548
Int'l Code: 1999-025AKN
Perigee: 795.8 km
Apogee: 913.4 km
Inclination: 99.7 °
Period: 101.9 minutes
Semi major axis: 7225 km
RCS: 0.0075 m2 (small)
Launch date: May 10, 1999
Source: People's Republic of China (PRC)
Launch site: Taiyaun Space Center, China (TSC)

Note: This is SATELLITE DEBRIS
aabbcc
Your satellite tracking list
Your tracking list is empty




NASA's NSSDC Master Catalog

Two Line Element Set (TLE):
1 30548U 99025AKN 22186.56861319  .00001427  00000-0  76124-3 0  9990
2 30548  99.6869 308.7303 0081401 237.6921 184.2038 14.13491193791882
Source of the keplerian elements: AFSPC